Regional Weather Roundup
Issued by NWS

Home | Current Version | Previous Version | Graphics & Text | Print | Product List | Glossary On
Versions: 1 2 3 4 5 6 7 8 9 10 11 12 13 14 15 16 17 18 19 20 21 22 23 24 25 26 27 28 29 30 31 32 33 34 35 36 37 38 39 40 41 42 43 44 45 46 47 48 49 50
000
ASUS45 KCYS 201510
RWRWY

WYOMING REGIONAL WEATHER ROUNDUP
NATIONAL WEATHER SERVICE CHEYENNE WY
800 AM MST FRI JAN 20 2017

NOTE:  "FAIR" INDICATES FEW OR NO CLOUDS BELOW 12,000 FEET
WITH NO SIGNIFICANT WEATHER AND/OR OBSTRUCTIONS TO VISIBILITY.

WYZ001-201600-
YELLOWSTONE NATIONAL PARK

CITY           SKY/WX    TMP DP  RH WIND       PRES   REMARKS
LK YELLOWSTONE   N/A     18  17  96 CALM      29.53S
W YELLOWSTONE  NOT AVBL

$$
WYZ002>013-054>058-071-098>099-201600-
NORTHERN WYOMING

CITY           SKY/WX    TMP DP  RH WIND       PRES   REMARKS
JACKSON        PTCLDY    18  18 100 CALM      29.54S
CODY           FAIR      22  18  85 CALM      29.49S
GREYBULL       CLOUDY    25  22  88 CALM      29.51S
WORLAND        CLOUDY    26  24  92 N7        29.51R WCI  18
SHERIDAN       MIX PCPN  35  32  88 W9        29.48S WCI  28
BUFFALO        LGT SNOW  32  29  88 CALM      29.47S VSB 1
GILLETTE       CLOUDY    32  30  92 W8        29.45S WCI  25
HULETT         CLOUDY    32  28  86 MISG      29.44F
NEWCASTLE      FAIR      25  18  74 NW3       29.42S

$$
WYZ014>020-022>026-101>103-201600-
CENTRAL WYOMING

CITY           SKY/WX    TMP DP  RH WIND       PRES   REMARKS
BIG PINEY      FOG       -7  -9  91 CALM      29.55F VSB 1/4
PINEDALE       SNOW      -6  -9  84 CALM      29.55F VSB 1/4
DUBOIS         NOT AVBL
LANDER         MOCLDY    20  15  81 CALM      29.49S
RIVERTON       FAIR      16  12  84 CALM      29.51S
CASPER         LGT SNOW  28  26  92 W8        29.48S VSB 1   WCI  20
DOUGLAS        CLOUDY    32  27  81 NW17      29.46S WCI  21

$$
WYZ021-027>030-104>119-201600-
SOUTHERN WYOMING

CITY           SKY/WX    TMP DP  RH WIND       PRES   REMARKS
EVANSTON       CLOUDY    22  19  89 SW5       29.55F WCI  16
ROCK SPRINGS   CLOUDY    19  16  88 W6        29.55F WCI  11
RAWLINS        CLOUDY    24  19  81 SW16      29.52R WCI  11
LARAMIE        CLOUDY    21  19  92 N6        29.45S WCI  13
CHEYENNE       CLOUDY    32  27  81 N6        29.46S WCI  26
TORRINGTON     FAIR      26  21  81 CALM      29.43F

$$



USA.gov is the U.S. government's official web portal to all federal, state and local government web resources and services.